Погода в Кагарлыке

Украина / Киевская область     49°51′55″N   30°49′22″E
темп.,
°C
ветер,
м/с
пор.,
м/с
влажн.,
%
обл.,
%
осадки,
мм/ч
давл.,
гПа
погр.,
м
26 февраля, пт
пт2623:00+2з46100100 0.0 1028100
02:00+2з35100100 0.0 102795
05:00+2зюз47100100 0.0 1026134
08:00+2зюз48100100 0.0 1024171
11:00+4зюз5109879 0.0 1023236
14:00+7з5109239 0.0 1021319
17:00+5з410930 0.0 1020175
20:00+3зсз48951 0.0 1020135
27 февраля, сб
сб2723:00+3з479647 0.0 1018130
02:00+3сз4109874 0.6 1018279
05:00+2зсз41192100 0.1 1017330
08:00+2зсз61392100 0.1 1017587
11:00+4зсз6117996 0.0 1016712
14:00+4зсз6108394 0.1 1016780
17:00+2зсз61297100 0.4 1016573
20:00+1сз5997100 0.9 1017427
28 февраля, вс
вс2823:00+1сз61197100 0.7 1019542
02:00+1ссз51097100 1.0 1021539
05:000ссз6119283 0.1 1022431
08:00+1ссз698787 0.1 1024798
11:00+1ссз699587 0.2 1024543
14:00+2сз687794 0.4 10251013
17:00+1ссз5980100 0.1 1025830
20:000сз4987100 0.1 1026516
1 марта, пн
пн123:000сз4887100 0.1 1027517
02:00−1сз488796 0.1 1027305
05:00−2сз379272 0.0 1028233
08:00−1ссз369077 0.0 1028377
11:00+1ссз348195 0.0 1029574
14:00+2ссз347897 0.1 1030624
17:00+1с2485100 0.0 1030205
20:00+1с1189100 0.0 103222
2 марта, вт
вт223:00+1зюз1292100 0.0 103323
02:00+1з2391100 0.0 103376
05:00+1зсз4898100 0.0 1032333
08:00+1зсз5988100 0.0 1031423
11:00+5з71076100 0.0 1030604
14:00+9зсз7116191 0.0 1027866
17:00+8зсз612640 0.0 1026741
20:00+5сз513800 0.0 1026401